Regional Weather Roundup
Issued by NWS Kansas City/Pleasant Hill, MO

Home | Current Version | Previous Version | Graphics & Text | Print | Product List | Glossary Off
Versions: 1 2 3 4 5 6 7 8 9 10 11 12 13 14 15 16 17 18 19 20 21 22 23 24 25 26 27 28 29 30 31 32 33 34 35 36 37 38 39 40 41 42 43 44 45 46 47 48 49 50

000
ASUS43 KEAX 260404
RWREAX

WEATHER ROUNDUP FOR EASTERN KANSAS AND NORTHWEST MISSOURI
NATIONAL WEATHER SERVICE KANSAS CITY/PLEASANT HILL MO
1000 PM CST THU DEC 25 2014

KSZ040-057-103>105-MOZ028-029-037-043-260500-
...KANSAS CITY METROPOLITAN AREA...

CITY           SKY/WX    TMP DP  RH WIND       PRES   REMARKS
K.C. INTL      PTCLDY    48  30  49 S18       29.77R
K.C. DOWNTOWN  MOCLDY    51  29  42 S18       29.79R
LEES SUMMIT    CLOUDY    48  29  47 S16G23    29.81R
OLATHE - IXD   CLOUDY    48  31  51 S17G25    29.79R
OLATHE - OJC   CLOUDY    49  30  48 S13G22    29.79R
LAWRENCE       MOCLDY    49  30  48 S14G26    29.76R

$$

MOZ001>008-011>017-020>025-030>033-038>040-044>046-053-054-260500-
...NORTHERN AND CENTRAL MISSOURI...

CITY           SKY/WX    TMP DP  RH WIND       PRES   REMARKS
ST. JOSEPH     CLEAR     44  31  60 S12       29.76R
MOSBY          PTCLDY    48  32  53 S12       29.80R
WARRENSBURG    CLOUDY    46  30  53 S14       29.84R
WHITEMAN AFB   NOT AVBL
CLINTON        MOCLDY    48  32  53 S10G18    29.87R
SEDALIA        MOCLDY    47  30  51 S15       29.87R
WARSAW         NOT AVBL
MARSHALL       MOCLDY    46  34  61 S13       29.86R
CHILLICOTHE      N/A     47  31  53 S9        29.82R
MOBERLY        CLEAR     45  28  53 S16       29.88R
KIRKSVILLE     PTCLDY    39  31  72 S10       29.85R WCI  32

$$

MOZ041-047>049-056>058-063>065-088>090-097-260500-
...EASTERN AND SOUTHERN MISSOURI...

CITY           SKY/WX    TMP DP  RH WIND       PRES   REMARKS
ST. LOUIS INTL MOCLDY    45  36  70 SE13G18   29.99S
SPIRIT OF STL  CLOUDY    44  34  67 S8        29.97S
COLUMBIA       PTCLDY    45  31  58 S14       29.90R
JEFFERSON CITY MOCLDY    47  30  51 S8        29.92R
MEXICO         PTCLDY    45  36  70 S13       29.90R
HANNIBAL       PTCLDY    45  30  57 S9G16     29.91R
ROLLA          CLOUDY    43  32  65 S18       29.92R WCI  35
LEBANON        CLOUDY    45  30  57 S16       29.93R
OSAGE BEACH    CLOUDY    46  28  49 S14       29.92R
SPRINGFIELD    CLOUDY    46  29  51 S20G25    29.89R
NEVADA         CLOUDY    43  32  65 S10       29.86S
JOPLIN         MOCLDY    49  29  46 S20       29.88R
WEST PLAINS    PTCLDY    42  34  73 S12       30.00S

$$

IAZ060-094-KSZ022-034>040-054-083-096-NEZ052-066-093-260500-
...KANSAS...SOUTHEAST NEBRASKA AND IOWA...

CITY           SKY/WX    TMP DP  RH WIND       PRES   REMARKS
TOPEKA         PTCLDY    49  30  48 S9        29.75R
MANHATTAN      PTCLDY    47  30  51 S9        29.70R
EMPORIA        FAIR      48  29  47 S18G26    29.73R
CHANUTE        MOCLDY    50  31  48 S20G25    29.82R
WICHITA        CLOUDY    49  28  44 S17       29.72F
OMAHA          MOCLDY    36  30  79 S3        29.72R
LINCOLN        PTCLDY    30  27  88 N7        29.70R WCI  23
FALLS CITY     PTCLDY    38  30  73 SE6       29.72R WCI  33
LAMONI         CLOUDY    43  32  65 S10       29.77R
DES MOINES     CLOUDY    42  30  62 SE12      29.77S

$$



USA.gov is the U.S. government's official web portal to all federal, state and local government web resources and services.